STARLINK-5566 (56133 NORAD) Tracking and Keplerian Element Data

This shows tracking and keplerian element data for the satellite.

Feedback or suggestion? Click here.




ElementValue
Catalog56133
NameSTARLINK-5566
Epoch Orbit656
Epoch Day127.25001157
Epoch Year2023
RAAN33.6892
Inclination43.0016
Eccentricity0.0001471
Argument of Perigee271.5136
Mean Anonmoly349.5391
Mean Motion15.48875851
Decay Rate0.00071714
L11 56133U 23046AT 23127.25001157 .00071714 00000+0 12925-2 0 9999
L22 56133 43.0016 33.6892 0001471 271.5136 349.5391 15.48875851 6566



Live tracking and technical data element details for STARLINK-5566 (NORAD 56133). STARLINK-5566 can be tracked NOW for your location showing map with azimuth and elevation plus other details from your city location.







IsCatalogInMostPopularTable: catalog: 56133, numindb: 3
Update: records affected: 1



GetName: 56133 STARLINK-5566

Hit Count: updated at: Mon, 05 Jun 2023 00:55:25 GMT